Powrót do katalogu

QIANFAN-156

AktywnyŁącznośćPO
NORAD 69115·PAYLOAD·🇨🇳 China

Wystrzelony May 17, 2026 z Wenchang Space Launch Site

Loading…

Następne Przeloty (najbliższe 24 godziny)

TLE

ŚwieżeSource: Space-Track

Epoka: Sep 14, 2026, 20:59 UTC

1 69115U 26108M   26257.87484938  .00000108  00000-0  14938-3 0  9999
2 69115  89.0205  13.0665 0001871 107.2509 252.8847 13.51022738 16577

Śledź QIANFAN-156 w czasie rzeczywistym z AllMySat

Download on the App Store